Location: PSU-Greenbush Astrophysical Observatory
(37.5140°N, 94.9880°W)
Time: 22:23:26
(UTC-06:00)

Altair - Pass Details

Date: 26 January 2020
Orbit: 1502 x 1682 km, 47.2° (Epoch: 19 February)

Event Time Altitude Azimuth Distance (km) Brightness Sun altitude
Rises 17:39:19 0° 286° (WNW) 4,895 11.1 -1.3°
Reaches altitude 10° 17:45:47 10° 256° (WSW) 3,862 11.6 -2.4°
Maximum altitude 17:48:23 11° 240° (WSW) 3,737 11.4 -2.9°
Drops below altitude 10° 17:50:59 10° 224° (SW) 3,820 10.9 -3.4°
Sets 17:57:19 0° 193° (SSW) 4,749 10.6 -4.6°
